Regional Weather Roundup
Issued by NWS

Home | Current Version | Previous Version | Text Only | Print | Product List | Glossary On
Versions: 1 2 3 4 5 6 7 8 9 10 11 12 13 14 15 16 17 18 19 20 21 22 23 24 25 26 27 28 29 30 31 32 33 34 35 36 37 38 39 40 41 42 43 44 45 46 47 48 49 50
000
ASUS46 KPQR 272310
RWROR

OREGON REGIONAL WEATHER ROUNDUP
NATIONAL WEATHER SERVICE PORTLAND OR
300 PM PST MON FEB 27 2017

NOTE: "FAIR" INDICATES FEW OR NO CLOUDS BELOW 12,000 FEET WITH
NO SIGNIFICANT WEATHER AND/OR OBSTRUCTIONS TO VISIBILITY.

ORZ001>013-280000-
NORTHWEST OREGON


CITY           SKY/WX    TMP DP  RH WIND       PRES   REMARKS
ASTORIA        LGT RAIN  40  36  86 SW10      29.77S WCI  33
NEWPORT        CLOUDY    43  37  81 SW10      29.90
PORTLAND       CLOUDY    43  37  79 SW12      29.79F
VANCOUVER WA   CLOUDY    43  38  82 SW7       29.79S
SCAPPOOSE      CLOUDY    42  38  85 VRB5      29.78F
HILLSBORO      CLOUDY    43  37  79 SW9       29.78F
AURORA         CLOUDY    42  36  79 S8        29.82S
MCMINNVILLE    CLOUDY    44  36  73 SW13      29.82S
SALEM          CLOUDY    43  36  76 SW6       29.83R
CORVALLIS        N/A     45  36  70 W12       29.85R
EUGENE         CLOUDY    43  38  82 SW10      29.87S
$$

ORZ021-028-280000-
SOUTHWEST OREGON


CITY           SKY/WX    TMP DP  RH WIND       PRES   REMARKS
NORTH BEND     CLOUDY    46  37  71 W22       29.94R
BROOKINGS      CLOUDY    44  39  82 NW5         N/A
ROSEBURG       CLOUDY    43  37  79 VRB5      29.91R
SEXTON SUMMIT  SNOW      29  28  96 NW8G21    29.80R VSB 1/2 WCI  21
MEDFORD        LGT RAIN  42  36  79 NW7       29.88R
$$

ORZ014>016-041-280000-
COLUMBIA GORGE


CITY           SKY/WX    TMP DP  RH WIND       PRES   REMARKS
TROUTDALE      CLOUDY    43  37  79 SW15G22   29.79F
THE DALLES     PTSUNNY   45  35  68 CALM      29.73F
$$

ORZ029>031-041-044-049-050-061>064-502-503-505>511-280000-
EASTERN OREGON


CITY           SKY/WX    TMP DP  RH WIND       PRES   REMARKS
REDMOND        CLOUDY    38  17  42 W22G28    29.69S WCI  27
BEND           LGT SNOW  32  27  80 N6        29.69R WCI  26
PRINEVILLE     CLOUDY    36  23  60 SW10      29.69F WCI  28
KLAMATH FALLS  PTSUNNY   32  30  92 SW12      29.77S WCI  23
LAKEVIEW       PTSUNNY   30  18  59 SW15      29.76F WCI  19
HERMISTON      CLOUDY    44  31  60 W9G16     29.71S
PENDLETON      LGT SNOW  35  32  88 CALM      29.70R FOG
JOHN DAY       PTSUNNY   37  19  48 SW10      29.67F WCI  29
MEACHAM        LGT SNOW  29  21  72 VRB3      29.63S VSB 3/4
LA GRANDE      CLOUDY    37  21  52 SE7       29.67S WCI  32
BAKER CITY     LGT SNOW  31  23  72 S12       29.68R WCI  22
BURNS          MOSUNNY   31  15  52 SW10      29.70F WCI  22
ROME             N/A     35  15  44 SW18      29.73R WCI  24
ONTARIO        MOSUNNY   38  21  50 W8        29.78S WCI  32
$$



USA.gov is the U.S. government's official web portal to all federal, state and local government web resources and services.